Hourly Data Report for October 15, 2014

All times are specified in Local Standard Time (LST). Add 1 hour to adjust for Daylight Saving Time where and when it is observed.

ST LEONARD CS
NEW BRUNSWICK

47°09'28.050" N
67°49'55.014" W
245.00 m
810I001
71019
WIY

Download Data

Hourly Data (October 2014)
Hourly Data Report for October 15, 2014
Temp Definition
°C
Dew Point Temp Definition
°C
Rel Hum Definition
%
Wind Dir Definition
10's deg

Wind Spd Definition
km/h
Visibility Definition
km
Stn Press Definition
kPa
Hmdx Definition


Wind Chill Definition


Weather Definition


TIME
00:00 14.8 13.5 92 16 3   98.58     LegendNANA
01:00 14.5 13.6 94 15 3   98.53     LegendNANA
02:00 14.7 13.9 95 17 4   98.47     LegendNANA
03:00 14.8 13.8 94 20 3   98.45     LegendNANA
04:00 15.3 14.0 92 20 3   98.46     LegendNANA
05:00 15.3 14.0 92 20 3   98.50     LegendNANA
06:00 15.3 13.9 92 20 3   98.49     LegendNANA
07:00 15.2 13.9 92 21 2   98.57     LegendNANA
08:00 15.6 14.2 91 19 2   98.64     LegendNANA
09:00 16.8 14.4 86 20 2   98.67     LegendNANA
10:00 18.0 14.9 82 22 3   98.68     LegendNANA
11:00 19.1 15.2 78 25 2   98.73     LegendNANA
12:00 18.7 15.3 80 32 3   98.74     LegendNANA
13:00 18.0 15.5 85 31 2   98.77     LegendNANA
14:00 15.7 14.2 91 1 2   98.80     LegendNANA
15:00 14.9 14.0 94 3 2   98.78     LegendNANA
16:00 13.8 12.7 93 5 2   98.79     LegendNANA
17:00 14.0 13.1 94 0 1   98.80     LegendNANA
18:00 13.9 13.1 95   0   98.80     LegendNANA
19:00 13.7 12.9 95   0   98.82     LegendNANA
20:00 13.5 12.7 95 0 1   98.79     LegendNANA
21:00 12.9 12.1 95 0 1   98.80     LegendNANA
22:00 12.7 12.0 96 36 1   98.80     LegendNANA
23:00 12.7 12.1 96 0 1   98.79     LegendNANA

Notes on Data Quality.

Legend

  • E = Estimated
  • M = Missing
  • NA = Not Available
  • ‡ = Partner data that is not subject to review by the National Climate Archives
Date modified: